| time (UTC) | temp F | wind direction | speed MPH | gust MPH | rain 1hr in | rain 24hr in | rain mn in | humidity % | barometer mb |
| 20260508200030 | 64 | 193 | 0.0 | 0.0 | 0.00 | 0.00 | 0.00 | 56 | 1016.7 |
| 20260508194515 | 64 | 175 | 0.0 | 0.0 | 0.00 | 0.00 | 0.00 | 56 | 1016.5 |
| 20260508193011 | 64 | 151 | 0.0 | 0.0 | 0.00 | 0.00 | 0.00 | 58 | 1016.5 |
| 20260508191508 | 65 | 181 | 0.0 | 4.0 | 0.00 | 0.00 | 0.00 | 63 | 1016.5 |
| 20260508190011 | 65 | 158 | 0.0 | 2.0 | 0.00 | 0.00 | 0.00 | 66 | 1016.4 |
| 20260508184504 | 65 | 170 | 0.0 | 0.0 | 0.00 | 0.00 | 0.00 | 72 | 1016.4 |
| 20260508183002 | 65 | 159 | 0.0 | 3.0 | 0.00 | 0.00 | 0.00 | 72 | 1016.1 |
| 20260508181613 | 66 | 142 | 0.0 | 0.0 | 0.00 | 0.00 | 0.00 | 76 | 1016.2 |
| 20260508180101 | 66 | 175 | 0.0 | 0.0 | 0.00 | 0.00 | 0.00 | 75 | 1016.1 |
| 20260508174556 | 66 | 175 | 0.0 | 0.0 | 0.00 | 0.00 | 0.00 | 73 | 1016.2 |
| 20260508173102 | 67 | 179 | 0.0 | 0.0 | 0.00 | 0.00 | 0.00 | 72 | 1016.1 |
| 20260508171555 | 67 | 135 | 0.0 | 2.0 | 0.00 | 0.00 | 0.00 | 70 | 1016.1 |
| 20260508170050 | 67 | 170 | 0.0 | 2.0 | 0.00 | 0.00 | 0.00 | 70 | 1016.0 |
| 20260508164549 | 68 | 170 | 0.0 | 1.0 | 0.00 | 0.00 | 0.00 | 69 | 1016.2 |
| 20260508163049 | 67 | 155 | 0.0 | 0.0 | 0.00 | 0.00 | 0.00 | 71 | 1016.1 |
| 20260508161546 | 67 | 165 | 0.0 | 0.0 | 0.00 | 0.00 | 0.00 | 74 | 1016.1 |
| 20260508160044 | 67 | 186 | 0.0 | 3.0 | 0.00 | 0.00 | 0.00 | 75 | 1016.3 |
| 20260508154542 | 67 | 180 | 0.0 | 2.0 | 0.00 | 0.00 | 0.00 | 75 | 1016.4 |
| 20260508153040 | 67 | 165 | 0.0 | 0.0 | 0.00 | 0.00 | 0.00 | 77 | 1016.5 |
| 20260508151544 | 68 | 159 | 0.0 | 0.0 | 0.00 | 0.00 | 0.00 | 77 | 1016.4 |
| 20260508150041 | 68 | 170 | 0.0 | 0.0 | 0.00 | 0.00 | 0.00 | 76 | 1016.6 |
| 20260508144542 | 68 | 165 | 0.0 | 0.0 | 0.00 | 0.00 | 0.00 | 76 | 1016.7 |
| 20260508143037 | 68 | 152 | 0.0 | 0.0 | 0.00 | 0.00 | 0.00 | 75 | 1016.9 |
| 20260508141529 | 69 | 146 | 0.0 | 0.0 | 0.00 | 0.00 | 0.00 | 74 | 1016.8 |
| 20260508140036 | 68 | 150 | 0.0 | 0.0 | 0.00 | 0.00 | 0.00 | 74 | 1016.7 |
| 20260508134521 | 68 | 117 | 0.0 | 2.0 | 0.00 | 0.00 | 0.00 | 74 | 1016.8 |
| 20260508133019 | 68 | 146 | 0.0 | 0.0 | 0.00 | 0.00 | 0.00 | 75 | 1017.0 |
| 20260508131514 | 68 | 154 | 0.0 | 0.0 | 0.00 | 0.00 | 0.00 | 74 | 1016.9 |
| 20260508130011 | 69 | 158 | 0.0 | 0.0 | 0.00 | 0.00 | 0.00 | 73 | 1016.8 |
| 20260508124504 | 70 | 139 | 0.0 | 4.0 | 0.00 | 0.00 | 0.00 | 71 | 1017.0 |
| 20260508123059 | 71 | 165 | 0.0 | 0.0 | 0.00 | 0.00 | 0.00 | 70 | 1017.1 |
| 20260508121555 | 72 | 156 | 0.0 | 4.0 | 0.00 | 0.00 | 0.00 | 70 | 1017.0 |
| 20260508120050 | 73 | 170 | 0.0 | 4.0 | 0.00 | 0.00 | 0.00 | 67 | 1016.8 |
| 20260508114546 | 73 | 133 | 0.0 | 2.0 | 0.00 | 0.00 | 0.00 | 69 | 1016.8 |
| 20260508113109 | 73 | 127 | 0.0 | 5.0 | 0.00 | 0.00 | 0.00 | 72 | 1016.8 |
| 20260508111541 | 73 | 165 | 0.0 | 1.0 | 0.00 | 0.00 | 0.00 | 74 | 1016.9 |
| 20260508110036 | 73 | 91 | 0.0 | 0.0 | 0.00 | 0.00 | 0.00 | 75 | 1017.0 |
| 20260508104540 | 72 | 104 | 0.0 | 0.0 | 0.00 | 0.00 | 0.00 | 77 | 1016.8 |
| 20260508103027 | 72 | 125 | 0.0 | 0.0 | 0.00 | 0.00 | 0.00 | 77 | 1016.7 |
| 20260508101531 | 72 | 158 | 0.0 | 0.0 | 0.00 | 0.00 | 0.00 | 76 | 1016.5 |
| 20260508100025 | 72 | 161 | 0.0 | 0.0 | 0.00 | 0.00 | 0.00 | 77 | 1016.4 |
| 20260508094515 | 72 | 160 | 0.0 | 0.0 | 0.00 | 0.00 | 0.00 | 77 | 1016.2 |
| 20260508093013 | 72 | 97 | 0.0 | 0.0 | 0.00 | 0.00 | 0.00 | 77 | 1015.9 |
| 20260508091506 | 72 | 96 | 0.0 | 0.0 | 0.00 | 0.00 | 0.00 | 78 | 1015.7 |
| 20260508090002 | 73 | 83 | 0.0 | 0.0 | 0.00 | 0.00 | 0.00 | 77 | 1015.5 |
| 20260508084558 | 74 | 64 | 0.0 | 0.0 | 0.00 | 0.00 | 0.00 | 76 | 1015.3 |
| 20260508083053 | 74 | 61 | 0.0 | 0.0 | 0.00 | 0.00 | 0.00 | 76 | 1015.1 |
| 20260508081555 | 74 | 65 | 0.0 | 2.0 | 0.00 | 0.00 | 0.00 | 75 | 1014.9 |
| 20260508080044 | 75 | 52 | 0.0 | 0.0 | 0.00 | 0.00 | 0.00 | 73 | 1014.8 |
| 20260508074540 | 76 | 83 | 0.0 | 3.0 | 0.00 | 0.00 | 0.00 | 72 | 1014.7 |
| 20260508073036 | 77 | 46 | 0.0 | 4.0 | 0.00 | 0.00 | 0.00 | 70 | 1014.5 |
| 20260508071531 | 78 | 91 | 0.0 | 8.0 | 0.00 | 0.00 | 0.00 | 69 | 1014.4 |
| 20260508070027 | 79 | 61 | 1.0 | 8.0 | 0.00 | 0.00 | 0.00 | 66 | 1014.2 |
| 20260508064546 | 80 | 133 | 1.0 | 7.0 | 0.00 | 0.00 | 0.00 | 64 | 1014.0 |
| 20260508063021 | 80 | 89 | 1.0 | 8.0 | 0.00 | 0.00 | 0.00 | 62 | 1013.9 |
| 20260508061517 | 81 | 73 | 2.0 | 8.0 | 0.00 | 0.00 | 0.00 | 61 | 1013.8 |
| 20260508060016 | 81 | 44 | 2.0 | 10.0 | 0.00 | 0.00 | 0.00 | 60 | 1013.7 |
| 20260508054520 | 81 | 98 | 2.0 | 12.0 | 0.00 | 0.00 | 0.00 | 59 | 1013.7 |
| 20260508053116 | 81 | 91 | 1.0 | 9.0 | 0.00 | 0.00 | 0.00 | 59 | 1013.6 |
| 20260508051519 | 82 | 43 | 1.0 | 14.0 | 0.00 | 0.00 | 0.00 | 59 | 1013.7 |
| 20260508050033 | 82 | 103 | 3.0 | 12.0 | 0.00 | 0.00 | 0.00 | 57 | 1013.8 |
| 20260508044523 | 82 | 75 | 2.0 | 9.0 | 0.00 | 0.00 | 0.00 | 58 | 1013.9 |
| 20260508043015 | 83 | 59 | 6.0 | 12.0 | 0.00 | 0.00 | 0.00 | 57 | 1013.9 |
| 20260508041510 | 84 | 131 | 1.0 | 11.0 | 0.00 | 0.00 | 0.00 | 55 | 1013.9 |
| 20260508040005 | 84 | 73 | 1.0 | 10.0 | 0.00 | 0.00 | 0.00 | 54 | 1014.1 |
| 20260508034501 | 84 | 62 | 1.0 | 8.0 | 0.00 | 0.00 | 0.00 | 54 | 1014.1 |
| 20260508033058 | 84 | 64 | 0.0 | 10.0 | 0.00 | 0.00 | 0.00 | 55 | 1014.2 |
| 20260508031602 | 84 | 131 | 1.0 | 9.0 | 0.00 | 0.00 | 0.00 | 55 | 1014.6 |
| 20260508030054 | 84 | 131 | 0.0 | 9.0 | 0.00 | 0.00 | 0.00 | 53 | 1014.7 |
| 20260508024543 | 84 | 151 | 2.0 | 10.0 | 0.00 | 0.00 | 0.00 | 55 | 1015.1 |
| 20260508023040 | 84 | 94 | 0.0 | 5.0 | 0.00 | 0.00 | 0.00 | 55 | 1015.2 |
| 20260508021534 | 83 | 129 | 0.0 | 9.0 | 0.00 | 0.00 | 0.00 | 57 | 1015.4 |
| 20260508020029 | 82 | 156 | 4.0 | 10.0 | 0.00 | 0.00 | 0.00 | 56 | 1015.6 |
| 20260508014525 | 82 | 145 | 1.0 | 8.0 | 0.00 | 0.00 | 0.00 | 56 | 1016.0 |
| 20260508013020 | 81 | 165 | 1.0 | 10.0 | 0.00 | 0.00 | 0.00 | 58 | 1016.2 |
| 20260508011519 | 81 | 106 | 1.0 | 9.0 | 0.00 | 0.00 | 0.00 | 59 | 1016.5 |
| 20260508010022 | 80 | 129 | 3.0 | 12.0 | 0.00 | 0.00 | 0.00 | 60 | 1016.7 |
| 20260508004506 | 79 | 182 | 2.0 | 12.0 | 0.00 | 0.00 | 0.00 | 59 | 1016.9 |
| 20260508003002 | 78 | 165 | 1.0 | 12.0 | 0.00 | 0.00 | 0.00 | 61 | 1017.0 |
| 20260508001600 | 77 | 180 | 1.0 | 11.0 | 0.00 | 0.00 | 0.00 | 61 | 1017.1 |
| 20260508000108 | 76 | 194 | 3.0 | 11.0 | 0.00 | 0.00 | 0.00 | 62 | 1017.0 |
| 20260507234549 | 76 | 196 | 4.0 | 10.0 | 0.00 | 0.00 | 0.00 | 63 | 1017.0 |
| 20260507233043 | 75 | 200 | 0.0 | 11.0 | 0.00 | 0.00 | 0.00 | 64 | 1016.9 |
| 20260507231545 | 74 | 182 | 0.0 | 11.0 | 0.00 | 0.00 | 0.00 | 65 | 1017.0 |
| 20260507230035 | 73 | 153 | 4.0 | 10.0 | 0.00 | 0.00 | 0.00 | 66 | 1016.8 |
| 20260507224533 | 72 | 165 | 1.0 | 11.0 | 0.00 | 0.00 | 0.00 | 68 | 1016.9 |
| 20260507223026 | 72 | 175 | 1.0 | 9.0 | 0.00 | 0.00 | 0.00 | 69 | 1016.6 |
| 20260507221522 | 70 | 149 | 0.0 | 1.0 | 0.00 | 0.00 | 0.00 | 73 | 1016.5 |
| 20260507220017 | 69 | 182 | 0.0 | 1.0 | 0.00 | 0.00 | 0.00 | 77 | 1016.3 |
| 20260507214520 | 68 | 192 | 0.0 | 1.0 | 0.00 | 0.00 | 0.00 | 78 | 1016.2 |
| 20260507213008 | 67 | 179 | 0.0 | 0.0 | 0.00 | 0.00 | 0.00 | 78 | 1016.1 |
| 20260507211504 | 66 | 198 | 0.0 | 0.0 | 0.00 | 0.00 | 0.00 | 73 | 1015.9 |
| 20260507204556 | 64 | 161 | 0.0 | 0.0 | 0.00 | 0.00 | 0.00 | 41 | 1015.5 |
| 20260507203053 | 64 | 161 | 0.0 | 0.0 | 0.00 | 0.00 | 0.00 | 34 | 1015.3 |
| 20260507201547 | 64 | 185 | 0.0 | 0.0 | 0.00 | 0.00 | 0.00 | 24 | 1015.1 |